KUIPER-00072

导读

KUIPER-00072是美国亚马逊柯伊伯(Kuiper,现称Amazon Leo)低轨卫星互联网星座的一颗卫星,于2025年7月16日发射,属于亚马逊布局全球卫星互联网计划的组网卫星。 该卫星运行在约640公里近地轨道,支持Ka频段通信,旨在为全球偏远地区、航空、海事提供高速互联网接入,助力亚马逊差异化竞争卫星互联网市场,与SpaceX星链形成竞争格局。

基本信息
目录编号:
64819
目录名称:
KUIPER-00072
国际标识:
2025-151D
轨道中心:
EARTH
卫星名称:
KUIPER-00072
卫星全名:
KUIPER-00072
卫星状态:
在轨 (已飞行423 天)
发射日期:
2025-07-16 UTC
国别 :
美国 (US)
星等 :
--
该卫星已列入 空间交会检测服务 Space Conjunction Data Service (SCDS) ,当前飞行风险评估等级: 无高风险
轨道信息
数据来源 国际轨道数据 AOE轨道数据
星历时间 2026-09-12T03:46:02+0800
7小时前
查看轨道信息
2026-09-06T22:00:00+0800
5天前
查看轨道信息
半长轴 7007.682km 7007.696km
偏心率 0.0001521 0.0001353
轨道倾角 51.893° 51.894°
近地点辐角 77.981° 30.603°
升交点赤经 179.938° 203.111°
平近点角 282.132° 113.665°
近地点 628.479km 628.61km
远地点 630.611km 630.508km
周期 97.302分钟 97.302分钟
每日圈数 14.799303 14.799256
详细信息
使用方式:
暂无
2D轨道图
3D轨道图
轨道高度分析图
轨道倾角分析图
轨道综合分析图
查看轨道综合分析图
与全量物体交会距离演化趋势
与全量物体交会风险概率演化趋势